JDWX 2.63 27.02870 -80.1653 0.000 0.000 20191112_1330 SFWMD JDWX current weather conditions

sailwx.info

Wind from 290 at 1 knots gusting 3

Air temperature 24.3° C
Dewpoint 19.0° C
Water temperature -7999.0° C

Last reported at 2019-Nov-12 14:30 UTC.
Time now 2019-Nov-12 15:56 UTC

Location: N 27°02' W 080°10'.
View on Google Maps.

See reports from other nearby stations

  
Tides and Currents Weather Stations Pressure Air Temp Water Temp Dewpoint Dewpoint Depression Visibility Wind Speed Wind Dir Waves Ship Positions
date/time (UTC)wind fromknots sea level pressurealtimeterstation pressurevisibilityair tempwater tempwave heightnotes
2019-Nov-12 14:30 290 1 gusting 3 24.3-7999.0
2019-Nov-12 14:15 219 1 gusting 3 23.9-7999.0
2019-Nov-12 14:00 212 1 gusting 3 22.5-7999.0
2019-Nov-12 13:45 168 0 gusting 2 20.9-7999.0
2019-Nov-12 13:30 091 0 gusting 1 21.8-7999.0
2019-Nov-12 13:15 184 0 gusting 1 21.4-7999.0
2019-Nov-12 13:00 306 0 gusting 1 20.9-7999.0
2019-Nov-12 12:45 299 0 gusting 1 20.7-7999.0
2019-Nov-12 12:30 309 0 gusting 1 19.9-7999.0
2019-Nov-12 12:15 322 0 gusting 1 19.6-7999.0
2019-Nov-12 12:00 208 0 gusting 1 19.6-7999.0
2019-Nov-12 11:45 264 0 gusting 1 19.6-7999.0
2019-Nov-12 11:30 308 0 gusting 1 19.8-7999.0
2019-Nov-12 11:15 330 19.8-7999.0
2019-Nov-12 11:00 330 20.0-7999.0
2019-Nov-12 10:45 330 0 gusting 0 20.1-7999.0
2019-Nov-12 10:30 292 0 gusting 1 20.1-7999.0
2019-Nov-12 10:15 279 20.0-7999.0
2019-Nov-12 10:00 287 20.0-7999.0
2019-Nov-12 09:45 287 0 gusting 0 20.0-7999.0
2019-Nov-12 09:30 296 0 gusting 0 20.0-7999.0
2019-Nov-12 09:00 300 20.2-7999.0
2019-Nov-12 08:45 300 20.1-7999.0
2019-Nov-12 08:30 300 20.0-7999.0
2019-Nov-12 08:15 300 19.9-7999.0
2019-Nov-12 08:00 319 0 gusting 1 19.7-7999.0
2019-Nov-12 07:45 309 0 gusting 0 19.6-7999.0
2019-Nov-12 07:30 304 0 gusting 1 19.5-7999.0
2019-Nov-12 07:15 305 0 gusting 1 19.5-7999.0
2019-Nov-12 07:00 319 19.5-7999.0
2019-Nov-12 06:45 256 0 gusting 1 19.6-7999.0
2019-Nov-12 06:30 249 19.6-7999.0
2019-Nov-12 06:15 254 19.8-7999.0
2019-Nov-12 06:00 256 0 gusting 1 20.0-7999.0
2019-Nov-12 05:45 291 0 gusting 1 19.8-7999.0
2019-Nov-12 05:30 140 0 gusting 2 19.5-7999.0
2019-Nov-12 05:15 247 19.6-7999.0
2019-Nov-12 05:00 247 19.8-7999.0
2019-Nov-12 04:45 254 0 gusting 1 20.1-7999.0
2019-Nov-12 04:30 180 0 gusting 4 19.9-7999.0
2019-Nov-12 04:15 258 0 gusting 1 19.5-7999.0
2019-Nov-12 04:00 332 0 gusting 0 19.3-7999.0
2019-Nov-12 03:45 332 0 gusting 1 19.3-7999.0
2019-Nov-12 03:30 332 19.1-7999.0
2019-Nov-12 03:15 331 0 gusting 0 19.2-7999.0
2019-Nov-12 03:00 224 19.0-7999.0
2019-Nov-12 02:45 224 19.3-7999.0
2019-Nov-12 02:30 224 19.3-7999.0
2019-Nov-12 02:15 224 19.6-7999.0
2019-Nov-12 02:00 270 0 gusting 0 19.7-7999.0
2019-Nov-12 01:45 313 19.8-7999.0
2019-Nov-12 01:30 313 19.9-7999.0
2019-Nov-12 01:15 313 19.9-7999.0
2019-Nov-12 01:00 313 20.2-7999.0
2019-Nov-12 00:45 313 20.3-7999.0
2019-Nov-12 00:30 313 20.4-7999.0
2019-Nov-12 00:15 313 0 gusting 0 20.5-7999.0
2019-Nov-12 00:00 149 0 gusting 0 20.6-7999.0
2019-Nov-11 23:45 140 20.6-7999.0
2019-Nov-11 23:30 140 20.8-7999.0
2019-Nov-11 23:15 134 21.1-7999.0
2019-Nov-11 23:00 162 0 gusting 0 21.7-7999.0
2019-Nov-11 22:45 196 0 gusting 0 22.4-7999.0
2019-Nov-11 22:30 113 0 gusting 0 23.3-7999.0
2019-Nov-11 22:15 093 0 gusting 2 24.0-7999.0
2019-Nov-11 22:00 103 1 gusting 3 24.5-7999.0
2019-Nov-11 21:45 111 1 gusting 4 24.9-7999.0
2019-Nov-11 21:30 108 2 gusting 4 25.2-7999.0
2019-Nov-11 21:15 098 2 gusting 4 25.5-7999.0
2019-Nov-11 21:00 116 2 gusting 5 25.7-7999.0
2019-Nov-11 20:45 107 3 gusting 6 25.9-7999.0
2019-Nov-11 20:30 096 2 gusting 5 26.1-7999.0
2019-Nov-11 20:15 121 3 gusting 6 25.2-7999.0
2019-Nov-11 20:00 093 3 gusting 7 26.0-7999.0
2019-Nov-11 19:45 092 3 gusting 7 25.7-7999.0
2019-Nov-11 19:30 091 3 gusting 7 26.3-7999.0
2019-Nov-11 19:15 088 3 gusting 5 26.3-7999.0
2019-Nov-11 19:00 078 3 gusting 6 26.5-7999.0
2019-Nov-11 18:30 105 3 gusting 6 26.6-7999.0
2019-Nov-11 18:15 084 3 gusting 6 25.7-7999.0
2019-Nov-11 17:45 111 3 gusting 6 25.4-7999.0
2019-Nov-11 17:30 093 3 gusting 7 25.0-7999.0
2019-Nov-11 17:15 083 3 gusting 6 25.0-7999.0
2019-Nov-11 16:45 088 3 gusting 6 25.8-7999.0
2019-Nov-11 16:30 091 3 gusting 6 25.4-7999.0
2019-Nov-11 16:15 088 3 gusting 7 25.7-7999.0
2019-Nov-11 16:00 098 3 gusting 6 25.4-7999.0
2019-Nov-11 15:45 088 2 gusting 6 25.4-7999.0
2019-Nov-11 15:30 094 2 gusting 5 25.0-7999.0
2019-Nov-11 15:15 125 3 gusting 6 25.1-7999.0
2019-Nov-11 14:45 076 2 gusting 5 23.9-7999.0
2019-Nov-11 14:30 060 1 gusting 6 24.0-7999.0
2019-Nov-11 14:15 068 1 gusting 3 24.1-7999.0
2019-Nov-11 14:00 074 1 gusting 3 24.3-7999.0
2019-Nov-11 13:45 076 2 gusting 5 24.0-7999.0
2019-Nov-11 13:30 082 2 gusting 6 24.2-7999.0
2019-Nov-11 13:15 082 1 gusting 3 23.2-7999.0
2019-Nov-11 13:00 071 1 gusting 4 21.6-7999.0
2019-Nov-11 12:45 194 0 gusting 2 20.0-7999.0
2019-Nov-11 12:30 098 0 gusting 1 19.4-7999.0
2019-Nov-11 12:15 121 0 gusting 1 18.7-7999.0
2019-Nov-11 12:00 112 0 gusting 2 18.2-7999.0
2019-Nov-11 11:45 102 0 gusting 2 18.1-7999.0
2019-Nov-11 11:30 068 0 gusting 1 18.0-7999.0
2019-Nov-11 11:15 077 0 gusting 1 18.1-7999.0
2019-Nov-11 11:00 051 18.1-7999.0
2019-Nov-11 10:45 200 0 gusting 1 18.0-7999.0
2019-Nov-11 10:30 049 0 gusting 1 18.1-7999.0
2019-Nov-11 10:15 086 0 gusting 1 18.0-7999.0
2019-Nov-11 10:00 068 0 gusting 1 18.3-7999.0
2019-Nov-11 09:45 075 0 gusting 2 18.5-7999.0
2019-Nov-11 09:30 078 0 gusting 2 18.8-7999.0
2019-Nov-11 09:15 068 0 gusting 2 18.2-7999.0
2019-Nov-11 08:45 065 0 gusting 1 18.5-7999.0
2019-Nov-11 08:30 077 0 gusting 1 18.3-7999.0
2019-Nov-11 08:15 054 0 gusting 1 18.3-7999.0
2019-Nov-11 08:00 050 0 gusting 1 17.9-7999.0
2019-Nov-11 07:30 089 0 gusting 1 18.4-7999.0
2019-Nov-11 07:15 084 0 gusting 1 18.8-7999.0
2019-Nov-11 07:00 048 0 gusting 0 19.2-7999.0
2019-Nov-11 06:45 092 0 gusting 1 19.9-7999.0
2019-Nov-11 06:30 078 0 gusting 2 20.8-7999.0
2019-Nov-11 06:15 081 0 gusting 2 21.2-7999.0
2019-Nov-11 06:00 095 1 gusting 4 21.8-7999.0
2019-Nov-11 05:30 093 2 gusting 5 22.2-7999.0
2019-Nov-11 05:15 095 1 gusting 3 22.7-7999.0
2019-Nov-11 05:00 095 2 gusting 6 22.6-7999.0
2019-Nov-11 04:45 085 1 gusting 4 21.6-7999.0
2019-Nov-11 04:30 088 1 gusting 3 21.6-7999.0
2019-Nov-11 04:00 098 1 gusting 4 22.2-7999.0
2019-Nov-11 03:45 093 2 gusting 4 22.8-7999.0
2019-Nov-11 03:30 093 2 gusting 7 22.6-7999.0
2019-Nov-11 03:15 086 2 gusting 5 22.7-7999.0
2019-Nov-11 02:45 094 2 gusting 5 22.6-7999.0
2019-Nov-11 02:30 080 1 gusting 4 22.2-7999.0
2019-Nov-11 02:15 082 1 gusting 4 22.3-7999.0
2019-Nov-11 02:00 075 1 gusting 5 22.4-7999.0
2019-Nov-11 01:45 067 1 gusting 4 22.1-7999.0
2019-Nov-11 01:30 062 1 gusting 5 22.4-7999.0
2019-Nov-11 01:15 059 1 gusting 4 22.5-7999.0
2019-Nov-11 01:00 063 1 gusting 3 22.4-7999.0
2019-Nov-11 00:45 061 1 gusting 4 22.6-7999.0
2019-Nov-11 00:30 057 2 gusting 4 23.0-7999.0
2019-Nov-11 00:15 069 2 gusting 5 23.1-7999.0
2019-Nov-11 00:00 063 1 gusting 4 23.1-7999.0
2019-Nov-10 23:45 059 1 gusting 4 22.9-7999.0
2019-Nov-10 23:30 060 1 gusting 3 22.4-7999.0
2019-Nov-10 23:15 064 2 gusting 5 22.3-7999.0
2019-Nov-10 23:00 047 1 gusting 2 22.2-7999.0
2019-Nov-10 22:45 059 1 gusting 3 22.5-7999.0
2019-Nov-10 22:30 058 1 gusting 4 22.9-7999.0
2019-Nov-10 22:15 050 2 gusting 5 23.3-7999.0
2019-Nov-10 22:00 058 1 gusting 4 23.3-7999.0
2019-Nov-10 21:45 068 2 gusting 5 23.4-7999.0
2019-Nov-10 21:30 059 2 gusting 5 23.7-7999.0
2019-Nov-10 21:15 059 2 gusting 5 24.1-7999.0
2019-Nov-10 21:00 069 2 gusting 6 23.8-7999.0
2019-Nov-10 20:45 061 2 gusting 5 23.9-7999.0
2019-Nov-10 20:30 060 2 gusting 5 23.4-7999.0
2019-Nov-10 20:15 061 2 gusting 7 23.3-7999.0
2019-Nov-10 20:00 053 2 gusting 4 23.5-7999.0
2019-Nov-10 19:45 058 2 gusting 5 24.4-7999.0
2019-Nov-10 19:30 061 2 gusting 5 24.5-7999.0
2019-Nov-10 19:15 080 2 gusting 5 24.8-7999.0
2019-Nov-10 19:00 074 3 gusting 8 25.0-7999.0
2019-Nov-10 18:45 069 4 gusting 8 23.7-7999.0
2019-Nov-10 18:30 076 3 gusting 7 24.1-7999.0
2019-Nov-10 18:15 062 3 gusting 6 23.2-7999.0
2019-Nov-10 18:00 070 3 gusting 6 24.5-7999.0
2019-Nov-10 17:45 057 2 gusting 7 23.9-7999.0
2019-Nov-10 17:30 063 3 gusting 6 23.8-7999.0
2019-Nov-10 17:15 082 3 gusting 7 24.0-7999.0
2019-Nov-10 17:00 069 3 gusting 6 25.2-7999.0
2019-Nov-10 16:45 065 2 gusting 6 25.5-7999.0
2019-Nov-10 16:30 057 3 gusting 9 25.2-7999.0
2019-Nov-10 16:15 064 3 gusting 6 25.2-7999.0
2019-Nov-10 16:00 077 3 gusting 7 24.9-7999.0
2019-Nov-10 15:45 064 3 gusting 7 25.4-7999.0
2019-Nov-10 15:30 082 2 gusting 7 24.7-7999.0
2019-Nov-10 15:15 076 3 gusting 8 24.4-7999.0
2019-Nov-10 15:00 061 2 gusting 7 24.7-7999.0